TimePDT,TemperatureF,Dew PointF,Humidity,Sea Level PressureIn,VisibilityMPH,Wind Direction,Wind SpeedMPH,Gust SpeedMPH,PrecipitationIn,Events,Conditions,WindDirDegrees,DateUTC
12:15 AM,57.2,55.4,94,30.01,10.0,NNW,3.5,-,N/A,,Overcast,330,2013-08-10 07:15:00
12:35 AM,57.2,55.4,94,30.02,10.0,Calm,Calm,-,N/A,,Overcast,0,2013-08-10 07:35:00
12:55 AM,57.2,55.4,94,30.01,10.0,NW,6.9,-,N/A,,Unknown,320,2013-08-10 07:55:00
1:15 AM,57.2,57.2,100,30.01,10.0,NW,5.8,-,N/A,,Unknown,310,2013-08-10 08:15:00
1:35 AM,57.2,55.4,94,30.01,10.0,Calm,Calm,-,N/A,,Unknown,0,2013-08-10 08:35:00
1:55 AM,57.2,57.2,100,30.01,10.0,NNW,5.8,-,N/A,,Unknown,340,2013-08-10 08:55:00
2:15 AM,57.2,57.2,100,30.01,10.0,NNW,5.8,-,N/A,,Unknown,330,2013-08-10 09:15:00
2:35 AM,57.2,55.4,94,30.01,10.0,NW,6.9,-,N/A,,Unknown,310,2013-08-10 09:35:00
2:55 AM,57.2,57.2,100,30.01,10.0,NNW,6.9,-,N/A,,Unknown,330,2013-08-10 09:55:00
3:15 AM,57.2,55.4,94,30.01,10.0,NW,4.6,-,N/A,,Unknown,310,2013-08-10 10:15:00
3:35 AM,57.2,55.4,94,30.01,10.0,Calm,Calm,-,N/A,,Unknown,0,2013-08-10 10:35:00
3:55 AM,57.2,55.4,94,30.01,10.0,NNW,3.5,-,N/A,,Unknown,340,2013-08-10 10:55:00
4:15 AM,57.2,55.4,94,30.01,10.0,Calm,Calm,-,N/A,,Unknown,0,2013-08-10 11:15:00
4:35 AM,57.2,55.4,94,30.00,10.0,North,3.5,-,N/A,,Unknown,360,2013-08-10 11:35:00
4:55 AM,57.2,55.4,94,30.01,10.0,NNW,6.9,-,N/A,,Unknown,340,2013-08-10 11:55:00
5:15 AM,57.2,55.4,94,30.01,10.0,Calm,Calm,-,N/A,,Unknown,0,2013-08-10 12:15:00
5:35 AM,57.2,55.4,94,30.01,10.0,WSW,6.9,-,N/A,,Unknown,250,2013-08-10 12:35:00
5:55 AM,57.2,55.4,94,30.01,10.0,Calm,Calm,-,N/A,,Unknown,0,2013-08-10 12:55:00
6:15 AM,57.2,55.4,94,30.02,10.0,NNW,3.5,-,N/A,,Unknown,340,2013-08-10 13:15:00
6:35 AM,57.2,55.4,94,30.02,10.0,Calm,Calm,-,N/A,,Unknown,0,2013-08-10 13:35:00
6:55 AM,57.2,55.4,94,30.02,10.0,Calm,Calm,-,N/A,,Unknown,0,2013-08-10 13:55:00
7:15 AM,57.2,55.4,94,30.03,10.0,North,3.5,-,N/A,,Unknown,360,2013-08-10 14:15:00
7:35 AM,57.2,55.4,94,30.03,10.0,North,3.5,-,N/A,,Mostly Cloudy,350,2013-08-10 14:35:00
7:55 AM,57.2,55.4,94,30.03,10.0,Calm,Calm,-,N/A,,Overcast,0,2013-08-10 14:55:00
8:15 AM,57.2,55.4,94,30.04,10.0,ENE,3.5,-,N/A,,Overcast,70,2013-08-10 15:15:00
8:35 AM,59.0,55.4,88,30.04,10.0,Calm,Calm,-,N/A,,Mostly Cloudy,0,2013-08-10 15:35:00
8:55 AM,60.8,55.4,82,30.04,10.0,Calm,Calm,-,N/A,,Unknown,0,2013-08-10 15:55:00
9:15 AM,60.8,55.4,82,30.05,10.0,NNW,4.6,-,N/A,,Unknown,340,2013-08-10 16:15:00
9:35 AM,60.8,55.4,82,30.05,10.0,SW,6.9,-,N/A,,Overcast,230,2013-08-10 16:35:00
9:55 AM,60.8,55.4,82,30.05,10.0,SSW,4.6,-,N/A,,Overcast,210,2013-08-10 16:55:00
10:15 AM,62.6,55.4,77,30.05,10.0,SSW,8.1,-,N/A,,Unknown,210,2013-08-10 17:15:00
10:35 AM,64.4,55.4,73,30.05,10.0,SW,9.2,-,N/A,,Unknown,230,2013-08-10 17:35:00
10:55 AM,66.2,55.4,68,30.05,10.0,SSW,8.1,-,N/A,,Unknown,210,2013-08-10 17:55:00
11:15 AM,66.2,55.4,68,30.05,10.0,SW,8.1,-,N/A,,Unknown,230,2013-08-10 18:15:00
11:35 AM,68.0,55.4,64,30.05,10.0,SW,6.9,-,N/A,,Unknown,220,2013-08-10 18:35:00
11:55 AM,68.0,55.4,64,30.05,10.0,SW,4.6,-,N/A,,Unknown,220,2013-08-10 18:55:00
12:15 PM,71.6,55.4,57,30.04,-9999.0,South,6.9,-,N/A,,Unknown,180,2013-08-10 19:15:00
12:35 PM,71.6,55.4,57,30.04,-9999.0,SSW,8.1,-,N/A,,Unknown,210,2013-08-10 19:35:00
12:55 PM,73.4,55.4,53,30.03,-9999.0,South,9.2,-,N/A,,Unknown,180,2013-08-10 19:55:00
1:15 PM,75.2,55.4,50,30.03,-9999.0,SW,11.5,-,N/A,,Unknown,230,2013-08-10 20:15:00
1:35 PM,75.2,55.4,50,30.02,-9999.0,SW,9.2,-,N/A,,Unknown,230,2013-08-10 20:35:00
1:55 PM,77.0,55.4,47,30.02,-9999.0,WSW,9.2,-,N/A,,Unknown,250,2013-08-10 20:55:00
2:15 PM,77.0,55.4,47,30.02,-9999.0,WSW,13.8,-,N/A,,Unknown,240,2013-08-10 21:15:00
2:35 PM,77.0,55.4,47,30.02,-9999.0,WSW,13.8,17.3,N/A,,Unknown,250,2013-08-10 21:35:00
2:55 PM,77.0,55.4,47,30.02,-9999.0,WSW,13.8,18.4,N/A,,Unknown,250,2013-08-10 21:55:00
3:15 PM,77.0,55.4,47,30.01,-9999.0,West,9.2,-,N/A,,Unknown,260,2013-08-10 22:15:00
3:35 PM,77.0,55.4,47,30.01,-9999.0,NW,6.9,-,N/A,,Unknown,320,2013-08-10 22:35:00
3:55 PM,75.2,55.4,50,30.01,-9999.0,NNW,9.2,17.3,N/A,,Unknown,330,2013-08-10 22:55:00
4:15 PM,75.2,55.4,50,30.01,-9999.0,NNW,12.7,16.1,N/A,,Clear,340,2013-08-10 23:15:00
4:35 PM,73.4,55.4,53,30.01,-9999.0,NNW,11.5,-,N/A,,Clear,340,2013-08-10 23:35:00
4:55 PM,73.4,55.4,53,30.01,-9999.0,North,12.7,17.3,N/A,,Clear,350,2013-08-10 23:55:00
5:15 PM,71.6,55.4,57,30.01,-9999.0,NNW,9.2,16.1,N/A,,Clear,340,2013-08-11 00:15:00
5:35 PM,71.6,57.2,60,30.01,-9999.0,NW,10.4,18.4,N/A,,Clear,320,2013-08-11 00:35:00
5:55 PM,69.8,57.2,64,30.01,-9999.0,West,6.9,-,N/A,,Clear,260,2013-08-11 00:55:00
6:15 PM,68.0,57.2,68,30.01,-9999.0,NNW,6.9,-,N/A,,Clear,330,2013-08-11 01:15:00
6:35 PM,68.0,55.4,64,30.01,-9999.0,West,4.6,-,N/A,,Clear,280,2013-08-11 01:35:00
6:55 PM,66.2,57.2,73,30.01,-9999.0,Calm,Calm,-,N/A,,Clear,0,2013-08-11 01:55:00
7:15 PM,66.2,57.2,73,30.00,10.0,Calm,Calm,-,N/A,,Clear,0,2013-08-11 02:15:00
7:35 PM,62.6,57.2,82,30.01,10.0,North,5.8,-,N/A,,Clear,350,2013-08-11 02:35:00
7:55 PM,62.6,57.2,82,30.01,10.0,ENE,3.5,-,N/A,,Clear,60,2013-08-11 02:55:00
8:15 PM,60.8,57.2,88,30.01,10.0,East,3.5,-,N/A,,Clear,90,2013-08-11 03:15:00
8:35 PM,60.8,57.2,88,30.01,10.0,East,3.5,-,N/A,,Clear,80,2013-08-11 03:35:00
8:55 PM,59.0,57.2,94,30.01,10.0,ESE,3.5,-,N/A,,Clear,110,2013-08-11 03:55:00
9:15 PM,59.0,57.2,94,30.02,10.0,Calm,Calm,-,N/A,,Clear,0,2013-08-11 04:15:00
9:35 PM,59.0,57.2,94,30.03,10.0,ENE,4.6,-,N/A,,Clear,70,2013-08-11 04:35:00
9:55 PM,59.0,57.2,94,30.03,10.0,Calm,Calm,-,N/A,,Clear,0,2013-08-11 04:55:00
10:15 PM,59.0,57.2,94,30.03,10.0,SE,4.6,-,N/A,,Clear,130,2013-08-11 05:15:00
10:35 PM,59.0,57.2,94,30.03,10.0,ESE,5.8,-,N/A,,Clear,120,2013-08-11 05:35:00
10:55 PM,57.2,57.2,100,30.03,10.0,ESE,6.9,-,N/A,,Clear,110,2013-08-11 05:55:00
11:15 PM,57.2,57.2,100,30.03,10.0,NE,4.6,-,N/A,,Partly Cloudy,50,2013-08-11 06:15:00
11:35 PM,57.2,57.2,100,30.03,10.0,Calm,Calm,-,N/A,,Clear,0,2013-08-11 06:35:00
11:55 PM,57.2,57.2,100,30.03,10.0,ESE,4.6,-,N/A,,Clear,120,2013-08-11 06:55:00